TimeMDT,TemperatureF,Dew PointF,Humidity,Sea Level PressureIn,VisibilityMPH,Wind Direction,Wind SpeedMPH,Gust SpeedMPH,PrecipitationIn,Events,Conditions,WindDirDegrees,DateUTC
12:15 AM,55.2,28.0,35,30.17,10.0,North,9.2,-,N/A,,Clear,360,2012-10-14 06:15:00
12:35 AM,53.1,27.3,37,30.17,10.0,North,5.8,-,N/A,,Clear,360,2012-10-14 06:35:00
1:15 AM,52.2,26.8,37,30.18,10.0,NNW,8.1,-,N/A,,Clear,340,2012-10-14 07:15:00
1:35 AM,51.8,26.1,37,30.19,10.0,NNW,8.1,-,N/A,,Clear,330,2012-10-14 07:35:00
1:55 AM,54.7,27.7,35,30.19,10.0,North,8.1,-,N/A,,Clear,360,2012-10-14 07:55:00
2:15 AM,57.2,28.8,34,30.19,10.0,NNW,6.9,-,N/A,,Clear,330,2012-10-14 08:15:00
2:35 AM,55.8,28.4,35,30.19,10.0,NNW,6.9,-,N/A,,Clear,330,2012-10-14 08:35:00
2:55 AM,55.4,28.2,35,30.19,10.0,North,5.8,-,N/A,,Clear,360,2012-10-14 08:55:00
3:15 AM,55.4,28.4,36,30.20,10.0,NNW,9.2,-,N/A,,Clear,340,2012-10-14 09:15:00
3:35 AM,55.6,28.8,36,30.20,10.0,North,9.2,-,N/A,,Clear,350,2012-10-14 09:35:00
3:55 AM,56.1,29.3,36,30.20,10.0,NNW,11.5,-,N/A,,Clear,340,2012-10-14 09:55:00
4:15 AM,55.8,30.9,39,30.20,10.0,North,8.1,-,N/A,,Clear,350,2012-10-14 10:15:00
4:35 AM,55.8,31.8,40,30.20,10.0,North,13.8,-,N/A,,Clear,350,2012-10-14 10:35:00
4:55 AM,55.8,32.0,41,30.20,10.0,North,12.7,-,N/A,,Clear,350,2012-10-14 10:55:00
5:15 AM,56.3,32.9,41,30.21,10.0,North,13.8,-,N/A,,Clear,350,2012-10-14 11:15:00
5:35 AM,56.3,33.3,42,30.21,10.0,North,12.7,19.6,N/A,,Clear,350,2012-10-14 11:35:00
5:55 AM,55.8,33.3,43,30.23,10.0,North,8.1,-,N/A,,Clear,350,2012-10-14 11:55:00
6:15 AM,55.4,33.1,43,30.23,10.0,North,8.1,-,N/A,,Clear,350,2012-10-14 12:15:00
6:35 AM,55.4,33.4,43,30.23,10.0,NNW,9.2,-,N/A,,Clear,340,2012-10-14 12:35:00
7:15 AM,54.1,34.3,47,30.26,10.0,NNW,10.4,-,N/A,,Clear,340,2012-10-14 13:15:00
7:35 AM,54.5,34.7,47,30.27,10.0,NNW,12.7,-,N/A,,Clear,340,2012-10-14 13:35:00
7:55 AM,55.4,34.7,46,30.27,10.0,NNW,13.8,-,N/A,,Clear,340,2012-10-14 13:55:00
8:15 AM,57.2,35.2,44,30.27,10.0,NNW,13.8,-,N/A,,Clear,340,2012-10-14 14:15:00
8:35 AM,59.0,35.6,42,30.28,10.0,North,11.5,-,N/A,,Clear,350,2012-10-14 14:35:00
8:55 AM,60.6,35.4,39,30.29,10.0,North,11.5,-,N/A,,Clear,350,2012-10-14 14:55:00
9:15 AM,62.8,35.1,36,30.30,10.0,North,9.2,-,N/A,,Clear,360,2012-10-14 15:15:00
9:35 AM,64.9,33.8,31,30.30,10.0,NE,5.8,-,N/A,,Clear,50,2012-10-14 15:35:00
9:55 AM,65.7,33.8,31,30.31,10.0,Calm,Calm,-,N/A,,Clear,0,2012-10-14 15:55:00
10:15 AM,66.9,33.3,29,30.31,10.0,ENE,6.9,-,N/A,,Clear,70,2012-10-14 16:15:00
10:35 AM,67.1,34.2,30,30.31,10.0,ENE,4.6,-,N/A,,Clear,70,2012-10-14 16:35:00
10:55 AM,67.6,32.9,28,30.31,10.0,SE,3.5,-,N/A,,Clear,140,2012-10-14 16:55:00
11:15 AM,69.1,32.9,26,30.31,10.0,SE,5.8,-,N/A,,Clear,130,2012-10-14 17:15:00
11:35 AM,70.7,32.9,25,30.31,10.0,SE,9.2,-,N/A,,Clear,140,2012-10-14 17:35:00
11:55 AM,71.1,32.2,24,30.31,10.0,SE,10.4,18.4,N/A,,Clear,130,2012-10-14 17:55:00
12:15 PM,72.5,32.5,23,30.29,10.0,East,12.7,16.1,N/A,,Clear,90,2012-10-14 18:15:00
12:35 PM,73.4,32.0,22,30.29,10.0,East,10.4,-,N/A,,Clear,100,2012-10-14 18:35:00
12:55 PM,74.8,30.9,20,30.28,10.0,ESE,10.4,19.6,N/A,,Clear,110,2012-10-14 18:55:00
1:15 PM,75.4,31.1,20,30.27,10.0,SE,10.4,-,N/A,,Clear,130,2012-10-14 19:15:00
1:35 PM,75.2,30.6,19,30.27,10.0,SE,10.4,-,N/A,,Clear,140,2012-10-14 19:35:00
2:15 PM,76.1,30.2,19,30.24,10.0,ESE,6.9,-,N/A,,Clear,110,2012-10-14 20:15:00
2:35 PM,76.6,30.2,18,30.23,10.0,ESE,8.1,-,N/A,,Clear,120,2012-10-14 20:35:00
3:15 PM,76.6,30.0,18,30.22,10.0,SE,6.9,-,N/A,,Clear,130,2012-10-14 21:15:00
3:35 PM,77.0,30.9,19,30.22,10.0,ESE,11.5,-,N/A,,Clear,120,2012-10-14 21:35:00
3:55 PM,77.4,30.2,18,30.21,10.0,East,6.9,-,N/A,,Clear,100,2012-10-14 21:55:00
4:15 PM,76.8,29.3,17,30.20,10.0,East,4.6,17.3,N/A,,Clear,100,2012-10-14 22:15:00
4:35 PM,77.4,28.8,17,30.20,10.0,ESE,5.8,17.3,N/A,,Clear,120,2012-10-14 22:35:00
4:55 PM,76.6,28.4,17,30.19,10.0,ESE,9.2,-,N/A,,Clear,110,2012-10-14 22:55:00
5:15 PM,76.8,28.4,17,30.19,10.0,SSE,10.4,-,N/A,,Clear,150,2012-10-14 23:15:00
5:35 PM,75.9,28.2,17,30.19,10.0,SE,10.4,-,N/A,,Clear,130,2012-10-14 23:35:00
5:55 PM,75.4,27.5,17,30.19,10.0,SE,10.4,-,N/A,,Clear,130,2012-10-14 23:55:00
6:15 PM,74.3,27.5,18,30.19,10.0,SE,6.9,-,N/A,,Clear,130,2012-10-15 00:15:00
6:35 PM,72.5,27.9,19,30.19,10.0,ESE,5.8,-,N/A,,Clear,120,2012-10-15 00:35:00
6:55 PM,69.8,28.2,21,30.19,10.0,SE,4.6,-,N/A,,Clear,130,2012-10-15 00:55:00
7:15 PM,67.6,28.4,23,30.19,10.0,SE,5.8,-,N/A,,Clear,140,2012-10-15 01:15:00
7:35 PM,67.3,28.2,23,30.20,10.0,SE,6.9,-,N/A,,Clear,140,2012-10-15 01:35:00
7:55 PM,67.1,27.5,23,30.21,10.0,SE,5.8,-,N/A,,Clear,140,2012-10-15 01:55:00
8:15 PM,66.4,27.5,23,30.21,10.0,SE,6.9,-,N/A,,Clear,140,2012-10-15 02:15:00
8:35 PM,65.5,27.5,24,30.21,10.0,SE,5.8,-,N/A,,Clear,130,2012-10-15 02:35:00
8:55 PM,63.5,27.5,26,30.23,10.0,ESE,4.6,-,N/A,,Clear,120,2012-10-15 02:55:00
9:15 PM,64.0,28.2,26,30.23,10.0,ESE,5.8,-,N/A,,Clear,120,2012-10-15 03:15:00
9:35 PM,63.5,28.4,27,30.23,10.0,East,5.8,-,N/A,,Clear,100,2012-10-15 03:35:00
9:55 PM,63.0,29.1,28,30.23,10.0,ESE,5.8,-,N/A,,Clear,110,2012-10-15 03:55:00
10:15 PM,62.6,29.7,29,30.24,10.0,East,4.6,-,N/A,,Clear,100,2012-10-15 04:15:00
10:35 PM,62.6,30.2,30,30.24,10.0,ESE,5.8,-,N/A,,Clear,110,2012-10-15 04:35:00
10:55 PM,61.3,30.2,31,30.24,10.0,ESE,3.5,-,N/A,,Clear,110,2012-10-15 04:55:00
11:15 PM,60.8,30.0,31,30.24,10.0,East,3.5,-,N/A,,Clear,100,2012-10-15 05:15:00
11:35 PM,61.0,30.2,31,30.24,10.0,ESE,4.6,-,N/A,,Clear,120,2012-10-15 05:35:00
11:55 PM,61.7,30.6,31,30.24,10.0,SE,6.9,-,N/A,,Clear,130,2012-10-15 05:55:00